SCP
0 0 0 0 0 0 0 0 0 0 0 0 0 0 0 0 0 0 0 0 0 0 0 0 0 0 0 0 0 0 0 0 0 0 0 0 0 0
0 0 0 0 0 0 0 0 0 0 0 0 0 0 0 0 0 0 0 0 0 0 0 0 0 0 0 0 0 0 0 0 0 0 0 0 0 0
0 0 0 0 0 0 0 0 0 0 0 0 0 0 0 0 0 0 0 0 0 0 0 0 0 0 0 0 0 0 0 0 0 0 0 0 0 0
0 0 0 0 0 0 0 0 0 0 0 0 0 0 0 0 0 0 0 0 0 0 0 0 0 0 0 0 0 0 0 0 0 0 0 0 0 0
0 0 0 0 0 0 0 0 0 0 0 0 0 0 0 0 0 0 0 0 0 0 0 0 0 0 0 0 0 0 0 0 0 0 0 0 0 0
0 0 0 0 0 0 0 0 0 0 0 0 0 0 0 0 0 0 0 0 0 0 0 0 0 0 0 0 0 0 0 0 0 0 0 0 0 0
0 0 0 0 0 0 0 0 0 0 0 0 0 0 0 0 0 0 0 0 0 0 0 0 0 0 0 0 0 0 0 0 0 0 0 0 0 0
0 0 0 0 0 0 0 0 0 0 0 0 0 0 0 0 0 0 0 0 0 0 0 0 0 0 0 0 0 0 0 0 0 0 0 0 0 0
0 0 0 0 0 0 0 0 0 0 0 0 0 0 0 0 0 0 0 0 0 0 0 0 0 0 0 0 0 0 0 0 0 0 0 0 0 0
0 0 0 0 0 0 0 0 0 0 0 0 0 0 0 0 0 0 0 0 0 0 0 0 0 0 0 0 0 0 0 0 0 0 0 0 0 -0
0 0 0 0 0 0 0 0 0 0 0 0 0 0 0 0 0 0 0 0 0 0 0 0 0 0 -0 -0 -0 0 0 0 0 0 0 0 0 -0
0 0 -0 -0 0 0 0 0 0 0 0 0 0 0 0 0 0 0 0 0 0 0 0 0 0 0 -0 -0 -0 0 0 0 0 0 0 0 0 -0
0 0 0 0 0 0 0 0 0 0 0 0 0 0 0 0 0 0 0 0 0 0 0 0 0 0 0 0 0 0 0 -0 0 -0 0 0 0 -0
0 0 0 0 0 0 0 0 0 0 0 0 0 0 0 0 0 0 0 0 0 0 0 0 0 0 0 0 0 -0 0 0 0 -0 -0 0 0 -0
0 0 0 0 0 0 0 0 0 0 0 0 0 0 0 0 0 0 0 0 0 -0 0 0 0 0 0 0 0 -0 0 -0 -0 -0 0 0 -0 -0
0 0 0 0 0 0 0 0 0 0 0 0 0 0 0 0 0 0 0 0 0 0 0 0 0 0 0 0 0 -0 -0 -0 -0 -0 0 0 0 -0
0 0 0 0 0 0 0 0 0 0 0 0 0 0 0 0 0 0 0 0 0 0 -0 0 0 0 0 0 0 0 -0 -0 -0 0 0 -0 -0 0
0 0 0 0 0 0 0 0 0 0 0 0 0 0 0 0 0 0 0 0 0 0 0 -0 -0 0 0 0 0 0 0 -0 0 0 0 0 0 0
0 0 0 0 0 0 0 0 0 0 0 0 0 0 0 0 0 0 0 0 0 0 -0 -0 -0 -0 0 0 0 0 0 0 0 0 0 0 0 0
0 0 0 0 0 0 0 0 0 0 0 0 0 0 0 0 0 0 0 0 0 -0 -0 -0 -0 -0 -0 -0 0 0 -0 0 0 0 0 0 0 0
0 0 0 0 0 0 0 0 0 0 0 0 0 0 0 0 0 0 0 0 0 0 -0 -0 -0 -0 -0 -0 -0 0 0 0 0 0 0 0 0 0
0 0 0 0 0 0 0 0 0 0 0 0 0 0 0 0 0 0 0 0 0 0 -0 -0 -0 -0 -0 -0 -0 0 0 0 0 0 0 0 0 0
0 0 0 0 0 0 0 0 0 0 0 0 -0 0 0 0 0 0 0 0 0 0 0 0 -0 -0 -0 -0 -0 -0 0 0 -0 0 0 0 0 0
Wind_Speed_500mb
33 33 37 41 45 50 56 60 63 66 121 79 98 98 105 108 111 106 106 103 83 82 82 88 95 102 98 92 97 90 78 84 97 101 115 108 96 107
35 36 39 45 50 55 59 64 64 70 96 113 117 118 121 120 118 113 114 113 115 107 93 92 93 93 95 102 97 101 87 88 86 101 110 122 113 94
36 41 44 49 54 58 60 64 65 66 89 141 114 117 118 120 120 115 114 112 113 99 86 85 86 89 93 95 98 106 98 101 94 94 97 121 128 115
39 44 47 52 58 60 61 63 64 64 73 104 122 121 117 115 112 110 108 103 100 94 86 81 81 84 89 97 104 109 126 122 122 107 104 114 136 123
40 45 51 57 60 59 59 63 64 57 64 82 120 112 120 116 102 105 109 106 98 86 79 74 71 73 79 85 91 97 114 109 118 126 114 112 120 135
43 48 55 57 59 60 60 59 64 67 74 85 100 118 105 107 100 98 109 95 103 97 89 86 82 75 74 77 83 94 101 123 126 126 123 122 118 133
45 52 57 56 56 53 51 59 63 72 77 82 90 92 100 94 88 88 97 108 103 91 98 86 75 77 79 82 76 70 99 113 121 121 126 120 120 131
48 54 55 54 47 49 47 53 58 70 82 88 95 95 108 98 100 97 97 101 112 80 83 97 82 99 102 88 80 62 54 96 106 107 122 133 128 135
50 50 52 47 45 52 54 57 62 69 74 85 105 109 112 105 100 105 101 104 118 101 83 120 94 112 105 97 80 79 70 55 75 95 97 130 130 136
45 48 45 43 44 49 57 68 78 87 92 89 97 111 111 115 106 110 113 116 126 119 82 110 93 106 100 101 88 72 60 53 55 76 94 114 128 125
42 41 39 41 48 45 57 75 92 96 81 78 83 89 92 97 97 99 103 95 112 123 92 89 99 91 89 97 91 79 60 60 69 69 87 102 114 121
37 39 38 40 44 46 58 75 92 93 83 93 93 89 97 119 104 93 103 107 106 119 107 79 79 70 90 100 91 56 50 63 67 64 82 102 110 110
36 39 39 41 41 51 53 65 73 77 87 98 93 86 85 84 82 73 82 93 103 118 104 90 100 95 89 102 102 86 63 76 79 81 70 81 110 128
32 34 35 36 46 51 52 56 57 62 69 77 80 80 83 84 81 81 79 95 97 121 113 101 95 90 88 94 95 93 96 82 81 90 80 68 95 143
20 24 30 37 42 45 47 50 52 58 64 72 78 76 82 90 89 90 90 78 88 113 107 106 117 112 102 102 98 83 76 75 71 91 98 76 85 128
13 17 26 32 35 43 48 51 54 57 61 67 79 77 84 90 88 84 86 80 86 98 86 89 101 109 113 107 100 99 96 86 68 82 95 80 65 107
10 15 21 28 38 45 51 55 58 62 67 71 79 77 87 92 89 83 79 85 91 89 88 88 77 95 98 102 96 87 78 85 95 101 91 88 69 102
10 13 22 31 40 48 57 64 67 69 73 78 83 74 92 91 92 90 88 80 83 82 79 82 77 77 87 92 93 98 93 89 96 96 93 85 75 71
9 15 23 31 38 46 55 62 72 73 81 84 87 79 90 99 97 92 85 79 82 78 80 84 79 73 73 70 73 84 94 95 95 85 96 92 72 48
9 17 23 31 36 44 54 62 70 78 84 88 92 82 94 104 99 93 86 82 83 83 86 88 84 75 74 63 67 73 71 81 86 89 87 70 73 73
10 17 23 29 35 44 52 60 67 79 84 89 93 82 103 103 100 93 90 88 85 81 86 93 88 80 77 91 82 91 94 93 97 91 85 82 71 95
9 15 20 26 33 42 51 61 68 77 85 87 91 88 111 106 99 96 92 93 88 83 87 96 88 82 80 74 86 82 86 88 85 82 85 101 71 83
11 16 22 29 33 38 49 59 64 74 82 86 88 101 118 109 104 97 97 88 86 87 81 87 80 74 76 74 74 85 71 84 84 75 73 83 85 101
Wind_Direction_500mb
288 293 298 300 301 301 299 296 294 304 305 305 307 304 303 301 299 299 297 296 293 289 284 280 277 268 272 271 262 266 265 260 255 252 238 234 232 231
286 291 292 293 296 296 293 290 288 283 288 296 297 297 300 301 300 297 294 292 290 288 283 281 279 277 274 267 264 261 261 258 258 255 247 234 232 233
282 285 289 293 294 292 291 290 287 283 281 292 292 297 298 299 301 303 301 299 295 290 284 281 277 275 272 269 266 259 257 255 253 250 254 238 232 230
281 285 291 293 294 295 295 293 289 287 281 288 298 299 301 304 307 306 309 304 299 293 288 284 281 279 277 274 269 262 250 252 247 245 249 242 230 231
283 290 295 297 297 298 297 296 295 290 289 291 297 303 306 309 303 304 307 307 304 297 292 287 285 283 280 277 274 269 249 245 247 244 245 246 237 233
287 293 296 298 299 297 298 299 301 303 302 292 289 297 295 300 298 297 301 297 301 300 296 293 293 291 286 280 275 268 264 252 248 243 241 247 241 231
290 294 296 299 301 304 294 292 295 296 289 283 280 283 287 290 290 295 293 294 291 292 299 300 302 297 288 278 279 279 263 253 251 246 239 241 240 234
292 296 300 301 301 303 288 282 283 287 287 285 284 281 281 281 285 285 286 289 289 288 292 287 289 291 296 291 273 274 268 253 249 243 244 239 243 236
293 299 299 299 306 311 302 291 293 290 283 285 284 281 282 282 284 284 282 283 281 285 284 284 286 288 295 301 291 286 284 256 242 241 247 243 240 240
292 299 300 306 312 302 308 304 303 299 296 292 284 288 285 286 281 283 282 280 284 282 274 274 280 283 290 297 292 286 281 264 271 257 247 240 241 240
294 297 302 311 311 300 301 305 303 303 300 295 290 283 281 281 280 280 278 274 271 275 272 266 276 281 288 289 291 281 271 277 272 258 246 239 236 234
288 296 312 302 297 301 305 306 300 310 317 312 300 288 280 282 285 275 274 269 268 272 267 277 281 283 285 284 290 278 264 257 262 277 242 241 229 231
288 298 303 309 305 305 306 297 305 314 303 302 306 305 305 305 296 284 282 276 264 265 272 269 268 268 266 274 281 263 269 261 267 273 246 249 233 218
276 292 309 310 309 314 312 316 310 309 316 325 319 313 308 307 303 294 288 270 269 268 271 269 263 260 260 264 267 274 266 269 270 272 276 250 235 225
277 294 303 315 319 319 324 331 330 329 333 328 322 317 310 309 307 302 304 292 282 270 269 269 264 261 255 256 261 263 264 263 263 270 275 261 232 228
280 307 318 321 326 336 339 341 340 341 339 326 326 325 313 313 308 306 303 295 289 288 276 274 269 261 253 253 252 256 254 258 259 267 273 267 241 227
300 313 311 333 344 344 346 348 346 346 341 336 335 324 315 314 309 309 302 296 289 287 284 274 271 266 266 258 244 249 247 254 261 270 273 272 229 220
284 318 336 351 348 351 351 350 351 348 345 343 338 320 317 318 315 310 304 296 290 286 284 279 267 258 249 255 253 252 253 253 258 264 264 267 249 226
279 334 347 349 349 349 349 350 349 348 347 348 338 320 319 320 317 312 306 300 294 289 285 279 274 278 244 247 254 253 250 250 255 253 261 258 254 250
303 339 347 350 351 349 349 349 348 351 349 349 344 326 323 322 318 314 309 303 299 296 291 283 274 268 271 272 264 259 252 255 250 255 258 255 258 239
337 340 347 349 349 352 352 352 351 350 348 349 343 333 326 324 319 316 312 308 302 295 288 285 273 274 274 262 276 253 252 256 259 256 256 254 257 190
339 334 346 344 351 352 352 354 353 352 350 349 344 334 331 327 322 320 316 311 305 297 288 288 286 280 274 269 264 263 256 262 263 261 252 248 226 182
331 341 350 351 353 352 354 353 353 351 351 347 345 335 339 331 328 324 320 315 309 303 295 290 288 281 272 265 264 260 256 259 266 260 260 232 221 193
Wind_Speed_850mb
33 33 37 41 45 50 56 60 63 66 121 79 98 98 105 108 111 106 106 103 83 82 82 88 95 102 98 92 97 90 78 84 97 101 115 108 96 107
35 36 39 45 50 55 59 64 64 70 96 113 117 118 121 120 118 113 114 113 115 107 93 92 93 93 95 102 97 101 87 88 86 101 110 122 113 94
36 41 44 49 54 58 60 64 65 66 89 141 114 117 118 120 120 115 114 112 113 99 86 85 86 89 93 95 98 106 98 101 94 94 97 121 128 115
39 44 47 52 58 60 61 63 64 64 73 104 122 121 117 115 112 110 108 103 100 94 86 81 81 84 89 97 104 109 126 122 122 107 104 114 136 123
40 45 51 57 60 59 59 63 64 57 64 82 120 112 120 116 102 105 109 106 98 86 79 74 71 73 79 85 91 97 114 109 118 126 114 112 120 135
43 48 55 57 59 60 60 59 64 67 74 85 100 118 105 107 100 98 109 95 103 97 89 86 82 75 74 77 83 94 101 123 126 126 123 122 118 133
45 52 57 56 56 53 51 59 63 72 77 82 90 92 100 94 88 88 97 108 103 91 98 86 75 77 79 82 76 70 99 113 121 121 126 120 120 131
48 54 55 54 47 49 47 53 58 70 82 88 95 95 108 98 100 97 97 101 112 80 83 97 82 99 102 88 80 62 54 96 106 107 122 133 128 135
50 50 52 47 45 52 54 57 62 69 74 85 105 109 112 105 100 105 101 104 118 101 83 120 94 112 105 97 80 79 70 55 75 95 97 130 130 136
45 48 45 43 44 49 57 68 78 87 92 89 97 111 111 115 106 110 113 116 126 119 82 110 93 106 100 101 88 72 60 53 55 76 94 114 128 125
42 41 39 41 48 45 57 75 92 96 81 78 83 89 92 97 97 99 103 95 112 123 92 89 99 91 89 97 91 79 60 60 69 69 87 102 114 121
37 39 38 40 44 46 58 75 92 93 83 93 93 89 97 119 104 93 103 107 106 119 107 79 79 70 90 100 91 56 50 63 67 64 82 102 110 110
36 39 39 41 41 51 53 65 73 77 87 98 93 86 85 84 82 73 82 93 103 118 104 90 100 95 89 102 102 86 63 76 79 81 70 81 110 128
32 34 35 36 46 51 52 56 57 62 69 77 80 80 83 84 81 81 79 95 97 121 113 101 95 90 88 94 95 93 96 82 81 90 80 68 95 143
20 24 30 37 42 45 47 50 52 58 64 72 78 76 82 90 89 90 90 78 88 113 107 106 117 112 102 102 98 83 76 75 71 91 98 76 85 128
13 17 26 32 35 43 48 51 54 57 61 67 79 77 84 90 88 84 86 80 86 98 86 89 101 109 113 107 100 99 96 86 68 82 95 80 65 107
10 15 21 28 38 45 51 55 58 62 67 71 79 77 87 92 89 83 79 85 91 89 88 88 77 95 98 102 96 87 78 85 95 101 91 88 69 102
10 13 22 31 40 48 57 64 67 69 73 78 83 74 92 91 92 90 88 80 83 82 79 82 77 77 87 92 93 98 93 89 96 96 93 85 75 71
9 15 23 31 38 46 55 62 72 73 81 84 87 79 90 99 97 92 85 79 82 78 80 84 79 73 73 70 73 84 94 95 95 85 96 92 72 48
9 17 23 31 36 44 54 62 70 78 84 88 92 82 94 104 99 93 86 82 83 83 86 88 84 75 74 63 67 73 71 81 86 89 87 70 73 73
10 17 23 29 35 44 52 60 67 79 84 89 93 82 103 103 100 93 90 88 85 81 86 93 88 80 77 91 82 91 94 93 97 91 85 82 71 95
9 15 20 26 33 42 51 61 68 77 85 87 91 88 111 106 99 96 92 93 88 83 87 96 88 82 80 74 86 82 86 88 85 82 85 101 71 83
11 16 22 29 33 38 49 59 64 74 82 86 88 101 118 109 104 97 97 88 86 87 81 87 80 74 76 74 74 85 71 84 84 75 73 83 85 101
Wind_Direction_850mb
288 293 298 300 301 301 299 296 294 304 305 305 307 304 303 301 299 299 297 296 293 289 284 280 277 268 272 271 262 266 265 260 255 252 238 234 232 231
286 291 292 293 296 296 293 290 288 283 288 296 297 297 300 301 300 297 294 292 290 288 283 281 279 277 274 267 264 261 261 258 258 255 247 234 232 233
282 285 289 293 294 292 291 290 287 283 281 292 292 297 298 299 301 303 301 299 295 290 284 281 277 275 272 269 266 259 257 255 253 250 254 238 232 230
281 285 291 293 294 295 295 293 289 287 281 288 298 299 301 304 307 306 309 304 299 293 288 284 281 279 277 274 269 262 250 252 247 245 249 242 230 231
283 290 295 297 297 298 297 296 295 290 289 291 297 303 306 309 303 304 307 307 304 297 292 287 285 283 280 277 274 269 249 245 247 244 245 246 237 233
287 293 296 298 299 297 298 299 301 303 302 292 289 297 295 300 298 297 301 297 301 300 296 293 293 291 286 280 275 268 264 252 248 243 241 247 241 231
290 294 296 299 301 304 294 292 295 296 289 283 280 283 287 290 290 295 293 294 291 292 299 300 302 297 288 278 279 279 263 253 251 246 239 241 240 234
292 296 300 301 301 303 288 282 283 287 287 285 284 281 281 281 285 285 286 289 289 288 292 287 289 291 296 291 273 274 268 253 249 243 244 239 243 236
293 299 299 299 306 311 302 291 293 290 283 285 284 281 282 282 284 284 282 283 281 285 284 284 286 288 295 301 291 286 284 256 242 241 247 243 240 240
292 299 300 306 312 302 308 304 303 299 296 292 284 288 285 286 281 283 282 280 284 282 274 274 280 283 290 297 292 286 281 264 271 257 247 240 241 240
294 297 302 311 311 300 301 305 303 303 300 295 290 283 281 281 280 280 278 274 271 275 272 266 276 281 288 289 291 281 271 277 272 258 246 239 236 234
288 296 312 302 297 301 305 306 300 310 317 312 300 288 280 282 285 275 274 269 268 272 267 277 281 283 285 284 290 278 264 257 262 277 242 241 229 231
288 298 303 309 305 305 306 297 305 314 303 302 306 305 305 305 296 284 282 276 264 265 272 269 268 268 266 274 281 263 269 261 267 273 246 249 233 218
276 292 309 310 309 314 312 316 310 309 316 325 319 313 308 307 303 294 288 270 269 268 271 269 263 260 260 264 267 274 266 269 270 272 276 250 235 225
277 294 303 315 319 319 324 331 330 329 333 328 322 317 310 309 307 302 304 292 282 270 269 269 264 261 255 256 261 263 264 263 263 270 275 261 232 228
280 307 318 321 326 336 339 341 340 341 339 326 326 325 313 313 308 306 303 295 289 288 276 274 269 261 253 253 252 256 254 258 259 267 273 267 241 227
300 313 311 333 344 344 346 348 346 346 341 336 335 324 315 314 309 309 302 296 289 287 284 274 271 266 266 258 244 249 247 254 261 270 273 272 229 220
284 318 336 351 348 351 351 350 351 348 345 343 338 320 317 318 315 310 304 296 290 286 284 279 267 258 249 255 253 252 253 253 258 264 264 267 249 226
279 334 347 349 349 349 349 350 349 348 347 348 338 320 319 320 317 312 306 300 294 289 285 279 274 278 244 247 254 253 250 250 255 253 261 258 254 250
303 339 347 350 351 349 349 349 348 351 349 349 344 326 323 322 318 314 309 303 299 296 291 283 274 268 271 272 264 259 252 255 250 255 258 255 258 239
337 340 347 349 349 352 352 352 351 350 348 349 343 333 326 324 319 316 312 308 302 295 288 285 273 274 274 262 276 253 252 256 259 256 256 254 257 190
339 334 346 344 351 352 352 354 353 352 350 349 344 334 331 327 322 320 316 311 305 297 288 288 286 280 274 269 264 263 256 262 263 261 252 248 226 182
331 341 350 351 353 352 354 353 353 351 351 347 345 335 339 331 328 324 320 315 309 303 295 290 288 281 272 265 264 260 256 259 266 260 260 232 221 193